Regional Weather Roundup
Issued by NWS

Home | Current Version | Previous Version | Text Only | Print | Product List | Glossary On
Versions: 1 2 3 4 5 6 7 8 9 10 11 12 13 14 15 16 17 18 19 20 21 22 23 24 25 26 27 28 29 30 31 32 33 34 35 36 37 38 39 40 41 42 43 44 45 46 47 48 49 50
000
ASUS46 KPQR 270710
RWROR

OREGON REGIONAL WEATHER ROUNDUP
NATIONAL WEATHER SERVICE PORTLAND OR
1200 AM PDT MON APR 27 2015

NOTE: "FAIR" INDICATES FEW OR NO CLOUDS BELOW 12,000 FEET WITH
NO SIGNIFICANT WEATHER AND/OR OBSTRUCTIONS TO VISIBILITY.

ORZ001>013-270800-
NORTHWEST OREGON


CITY           SKY/WX    TMP DP  RH WIND       PRES   REMARKS
ASTORIA        LGT RAIN  52  51  97 CALM      30.25R FOG
NEWPORT        CLOUDY    54  52  94 NE3       30.30
PORTLAND       CLOUDY    53  52  96 E6        30.29F
VANCOUVER WA   CLOUDY    53  50  89 E6        30.29S
SCAPPOOSE      CLOUDY    53  51  93 VRB3      30.28S
HILLSBORO      CLOUDY    53  51  93 SE5       30.28S
AURORA         CLOUDY    53  52  96 E3        30.29F
MCMINNVILLE    CLOUDY    54  52  93 SE5       30.28S
SALEM          CLOUDY    54  51  90 SE5       30.27F
CORVALLIS      CLOUDY    54  52  94 E5        30.29S
EUGENE         CLOUDY    53  50  89 CALM      30.27F
$$

ORZ021-028-270800-
SOUTHWEST OREGON


CITY           SKY/WX    TMP DP  RH WIND       PRES   REMARKS
NORTH BEND     PTCLDY    52  50  93 N5        30.27F
BROOKINGS      CLEAR     51  51 100 CALM      30.21F
ROSEBURG       CLEAR     52  47  83 CALM      30.26S
SEXTON SUMMIT  CLEAR     46  42  86 E5        30.26F
MEDFORD        CLEAR     55  46  71 CALM      30.25S
$$

ORZ014>016-041-270800-
COLUMBIA GORGE


CITY           SKY/WX    TMP DP  RH WIND       PRES   REMARKS
TROUTDALE      CLOUDY    54  49  83 E5        30.28F
THE DALLES     CLOUDY    57  44  62 NW10      30.26R
$$

ORZ029>031-041-044-049-050-061>064-502-503-505>511-270800-
EASTERN OREGON


CITY           SKY/WX    TMP DP  RH WIND       PRES   REMARKS
REDMOND        MOCLDY    45  38  76 SW6       30.27S
BEND           MOCLDY    43  37  81 CALM      30.28S
PRINEVILLE     CLOUDY    45  37  76 CALM      30.28R
KLAMATH FALLS  CLEAR     46  38  73 NW5       30.27S
LAKEVIEW       CLEAR     43  32  65 N7        30.29S
HERMISTON      MOCLDY    50  30  46 S3        30.24R
PENDLETON      CLOUDY    46  29  51 SE8       30.23S
JOHN DAY       CLEAR     40  28  61 E6        30.27S
MEACHAM        PTCLDY    29  24  82 CALM      30.26F
LA GRANDE      PTCLDY    39  19  45 CALM      30.26S
BAKER CITY     FLURRIES  32  24  72 S6        30.28R WCI  26
BURNS          CLEAR     34  19  54 CALM      30.27S
ROME             N/A     38  26  62 E6        30.25R WCI  33
ONTARIO        CLEAR     46  24  42 N12       30.26R
$$



USA.gov is the U.S. government's official web portal to all federal, state and local government web resources and services.